Wind_Speed
17 17 17 16 19 17 14 14 14 13 12 11 10 10 9 9 8 8 8 7 7 8 8 9 8 9 9 9 11 12 12 12 12 12 13 13 12 11 11 12 12 11 10 10 10 10 10 10 9
17 17 17 17 19 15 14 14 14 13 13 12 11 11 10 9 9 8 8 7 6 7 7 8 8 9 10 11 12 13 12 12 12 12 12 12 12 12 12 12 12 11 10 10 10 9 9 8 8
16 16 17 18 16 15 15 15 15 15 14 13 12 12 11 10 10 9 8 7 7 7 7 9 9 10 10 11 12 12 12 12 12 12 12 12 13 12 12 11 11 10 10 9 9 9 8 7 7
16 16 17 17 15 15 15 15 15 15 15 14 14 13 12 11 10 9 8 8 8 7 7 8 8 8 10 11 12 12 11 12 12 12 13 12 12 12 11 10 10 9 9 8 8 8 8 7 7
15 16 17 16 15 15 15 15 14 15 15 15 14 14 13 12 11 10 9 9 9 8 8 8 8 8 9 10 11 11 11 11 10 11 11 11 11 11 10 9 9 9 8 8 8 7 7 6 6
14 16 15 14 14 15 15 15 15 15 15 14 14 14 14 13 11 11 10 10 9 8 8 7 7 7 9 10 10 10 10 11 11 11 11 11 11 10 9 8 8 8 8 7 7 6 5 5 5
14 15 14 13 13 14 15 15 16 15 15 15 14 14 13 13 12 11 11 10 10 9 8 8 7 8 9 10 9 10 10 11 11 10 10 11 10 10 8 8 8 7 7 7 6 5 5 4 4
12 14 13 12 13 13 14 15 15 16 15 14 14 14 13 13 12 11 10 10 9 9 8 8 7 8 9 9 9 10 10 10 10 10 10 10 10 9 8 7 7 6 6 6 5 5 4 4 4
10 12 11 12 13 13 13 14 14 15 14 14 13 13 13 12 11 11 10 9 9 8 8 7 8 8 8 8 8 9 10 10 10 10 10 9 9 8 7 6 6 5 5 5 5 4 4 4 3
9 10 10 11 11 12 12 13 13 14 14 13 13 13 12 12 12 11 10 9 8 8 7 7 6 7 7 7 7 8 8 9 10 10 9 8 7 7 7 6 6 5 5 4 4 3 3 3 3
7 8 8 9 9 10 11 11 12 12 13 12 12 11 11 11 11 11 11 9 8 7 6 6 7 7 7 7 7 7 8 8 8 8 8 7 6 6 6 6 5 5 4 4 4 4 3 3 3
5 6 6 7 7 9 9 9 10 11 11 11 11 11 10 10 10 10 10 9 8 8 7 7 7 7 7 7 7 7 7 7 8 7 7 6 6 6 5 5 4 4 4 4 4 4 4 3 3
5 5 4 4 5 6 6 7 8 9 10 10 11 11 10 10 10 9 9 8 8 7 7 6 7 6 7 7 6 6 6 7 7 7 7 6 5 5 5 4 4 3 4 4 4 4 4 4 3
5 5 4 3 3 3 4 5 5 6 8 8 9 10 10 9 9 9 8 7 6 6 6 6 6 6 6 6 6 6 6 6 6 6 6 6 5 5 4 4 3 3 3 4 4 4 4 4 4
6 6 5 4 3 3 2 2 2 3 5 6 7 8 8 8 8 8 8 7 6 6 5 4 5 6 6 6 6 6 6 6 5 5 5 5 5 5 5 4 3 2 2 3 4 4 4 5 5
8 6 5 6 5 4 3 2 1 1 2 4 5 6 6 7 6 7 7 7 6 6 5 4 4 5 6 6 6 7 6 6 5 5 4 4 3 4 4 4 3 2 2 3 3 4 5 5 5
9 8 8 8 7 7 6 5 4 2 1 2 3 3 4 4 5 5 6 6 5 5 4 4 4 5 5 5 6 6 6 6 5 4 4 3 3 3 3 3 2 2 2 2 4 4 5 5 5
11 11 11 10 10 9 8 8 7 5 4 3 3 2 1 2 3 3 3 4 4 4 4 4 4 4 5 5 5 5 5 5 4 4 3 2 1 2 2 1 2 2 3 3 3 4 4 4 5
14 13 13 13 12 11 10 10 9 7 6 5 5 4 4 3 2 2 2 2 2 2 3 3 4 4 4 4 4 4 4 4 3 2 1 1 0 0 1 2 2 3 4 3 4 4 4 5 5
15 14 15 14 13 13 13 12 11 9 8 8 7 7 6 5 4 3 2 2 1 0 1 2 3 3 3 3 2 3 3 2 2 1 0 0 1 1 2 3 4 4 5 5 5 5 5 6 6
16 16 16 15 15 14 14 13 12 11 9 9 9 8 8 7 6 5 4 3 3 2 1 1 1 2 2 2 1 1 1 1 0 0 1 1 1 2 4 5 5 5 6 6 6 6 6 7 7
17 18 18 16 16 15 14 14 13 13 12 10 10 10 9 9 9 8 6 5 5 4 4 3 2 2 2 2 1 2 2 2 2 2 2 2 3 4 5 6 6 6 7 7 8 8 8 8 8
18 18 18 18 18 18 17 16 15 14 14 13 12 12 12 11 11 11 10 9 8 7 6 6 5 4 4 4 4 4 4 4 4 4 4 4 4 5 6 7 7 8 9 9 9 10 9 9 9
19 18 18 18 18 18 17 17 17 16 15 15 15 14 14 14 14 13 13 12 10 10 9 8 8 7 7 7 6 6 7 7 7 7 7 7 7 7 7 8 8 9 10 10 10 10 9 9 9
19 18 17 16 17 17 19 18 17 17 17 17 16 16 16 16 16 15 15 14 12 12 11 10 10 10 9 9 9 9 9 10 10 9 10 10 10 10 9 10 10 10 10 11 11 10 9 10 10
20 19 18 17 17 17 19 19 18 17 17 18 18 17 17 17 17 17 16 16 15 15 14 14 12 12 11 11 11 11 12 12 13 13 13 13 13 13 13 12 12 12 11 11 11 11 11 11 12
20 20 20 19 19 18 19 19 19 17 17 18 18 18 18 19 19 19 19 18 18 18 17 16 15 15 14 14 14 14 15 15 15 15 15 15 15 15 15 14 14 14 13 13 13 13 13 13 13
21 21 20 19 19 19 20 19 19 17 18 18 19 20 20 20 20 20 20 20 20 20 20 19 19 18 18 17 16 17 17 17 17 17 17 17 16 16 16 16 16 15 15 15 16 16 15 15 15
22 22 22 21 21 20 19 20 20 20 19 19 20 20 20 20 21 21 21 22 22 22 22 22 22 21 20 20 19 19 19 19 19 19 19 19 18 18 18 18 17 17 17 17 17 18 18 17 17
25 24 23 23 23 23 22 22 21 21 21 21 21 21 21 21 21 22 23 24 23 23 23 24 24 24 23 23 23 23 23 22 22 22 22 21 20 19 19 20 20 19 19 19 19 19 19 19 19
Wind_Direction
86 84 81 82 77 73 75 79 78 79 80 83 88 95 98 102 105 109 118 122 125 127 137 138 136 136 137 139 141 138 135 136 135 136 136 136 135 135 131 125 120 120 117 116 117 120 118 114 111
85 83 80 79 78 74 73 76 77 79 81 83 86 90 93 96 102 108 115 122 123 125 130 137 140 144 139 140 141 139 135 135 137 137 138 135 134 134 132 125 123 123 121 121 120 121 120 117 114
84 82 80 76 75 76 76 77 79 79 80 81 83 85 88 90 96 104 109 112 115 121 128 135 140 141 138 139 142 142 137 139 140 140 139 137 135 132 129 128 128 127 125 123 121 121 122 121 120
85 82 78 74 74 75 76 79 81 79 78 79 79 80 83 86 90 98 104 109 114 120 130 138 142 137 137 141 142 141 140 141 141 138 137 138 135 132 131 132 132 130 128 125 123 122 120 119 122
87 82 75 74 74 75 76 77 79 78 77 77 77 77 80 82 86 94 101 106 113 120 125 130 138 137 140 143 144 145 145 143 145 142 143 141 135 132 132 133 135 133 132 130 127 128 125 117 118
87 84 82 78 76 76 75 74 75 75 75 75 76 76 77 80 82 88 94 102 107 114 121 126 132 139 144 148 147 146 149 147 146 146 145 144 141 137 134 134 137 135 135 136 136 134 131 125 120
88 88 84 80 77 75 75 73 72 72 71 72 74 77 77 78 82 88 92 97 104 111 120 126 133 142 147 148 148 148 149 149 148 145 143 143 142 139 138 138 139 140 142 142 142 141 141 142 142
93 87 80 83 79 74 75 74 72 70 69 70 71 73 75 75 79 85 90 95 102 108 118 124 131 144 148 148 147 149 149 150 150 147 145 147 148 147 147 146 147 148 148 149 149 148 149 152 151
98 90 90 89 83 76 74 73 72 70 68 68 69 70 72 74 77 83 90 97 102 108 116 125 132 136 140 145 149 149 152 154 153 152 150 150 153 155 157 156 155 157 161 160 159 157 162 167 162
102 102 100 93 85 82 75 72 71 69 67 65 66 68 70 72 74 78 84 93 97 103 113 124 128 133 138 142 145 147 152 157 159 159 158 155 158 163 165 165 163 165 169 171 169 171 170 172 172
112 109 106 97 87 85 78 71 69 68 65 63 62 66 69 70 72 75 78 82 85 90 98 114 130 129 133 141 147 149 153 160 163 163 164 161 161 166 171 168 167 173 178 180 177 180 179 173 172
131 126 111 100 88 84 81 74 65 63 62 62 61 62 64 68 68 71 73 76 82 85 92 105 114 124 128 134 143 150 154 163 166 167 169 167 168 171 179 177 175 183 190 191 192 196 198 195 190
159 148 132 112 96 86 82 78 65 57 55 58 59 58 59 60 63 66 71 73 76 84 93 99 110 120 122 128 139 146 153 157 160 163 168 170 171 175 184 179 184 186 194 196 197 206 214 217 211
174 169 165 158 132 111 97 82 69 57 50 50 52 53 54 56 58 58 61 65 74 82 89 99 111 121 122 125 137 139 145 149 151 157 168 173 176 178 178 180 183 194 204 213 217 222 228 235 234
188 189 197 199 189 176 144 94 77 64 45 41 43 47 49 47 51 52 55 62 68 75 80 88 109 122 120 119 132 138 141 148 149 156 162 168 173 169 172 179 185 203 229 233 238 238 246 248 243
204 208 218 225 213 207 200 206 238 88 49 33 34 39 43 43 48 51 54 57 63 70 78 88 87 114 113 116 126 136 136 141 144 141 135 145 163 166 175 192 211 244 267 258 256 256 258 259 256
218 224 232 236 233 227 222 222 232 230 260 346 3 21 35 42 46 48 49 51 60 64 71 83 86 97 104 111 118 124 132 134 137 139 131 131 148 168 183 211 235 277 293 286 275 277 264 262 265
232 234 239 243 248 237 234 236 245 243 254 286 302 303 351 27 31 32 38 44 52 62 69 77 86 93 105 114 118 117 120 126 133 135 144 137 151 177 191 224 253 284 309 302 288 284 278 271 274
232 234 242 245 248 246 244 242 247 251 254 267 278 268 271 291 326 347 351 6 28 56 69 82 99 98 104 114 121 124 124 122 123 125 123 102 85 210 241 277 300 295 300 294 291 293 287 279 279
240 242 248 252 253 252 252 250 248 253 255 258 262 266 264 262 271 291 300 315 320 270 102 95 116 117 114 114 119 125 127 126 122 109 93 5 337 317 301 284 284 294 294 298 301 298 294 289 289
244 246 248 250 254 255 255 256 250 252 256 255 256 260 262 261 261 269 277 279 269 247 208 169 169 156 140 131 119 139 152 158 157 312 294 288 299 315 319 314 303 296 297 297 302 302 296 288 288
245 248 248 250 252 256 259 256 253 252 253 253 254 256 257 262 260 261 266 269 265 257 245 240 231 225 216 219 241 264 263 269 284 294 294 296 296 298 304 310 304 299 299 301 301 302 297 290 286
244 249 251 251 253 256 259 258 252 254 252 253 255 253 253 259 260 259 260 262 261 259 254 249 243 245 245 246 255 267 273 278 286 287 283 285 290 296 299 301 299 294 295 297 299 299 296 290 284
247 251 253 254 254 256 255 258 255 253 252 253 254 254 253 257 256 256 258 258 257 257 255 253 253 255 254 255 262 269 270 274 280 284 283 285 289 294 296 296 296 295 295 296 299 298 294 293 289
248 249 253 257 256 258 257 257 255 252 251 251 254 256 254 253 253 254 257 257 257 259 257 255 258 257 256 260 264 268 271 274 278 281 282 283 286 290 291 290 291 292 291 292 292 289 290 291 292
248 244 242 247 253 260 262 259 257 251 248 250 253 257 255 253 253 254 255 257 259 261 258 257 258 259 262 263 267 268 272 276 279 280 280 282 283 284 287 287 285 284 285 287 284 282 286 288 291
247 245 245 250 251 255 258 261 260 251 246 249 252 255 258 257 255 255 254 256 260 261 258 257 259 261 264 265 267 270 272 275 277 277 278 279 279 281 283 283 284 282 281 285 286 285 285 285 288
248 247 247 246 251 257 261 263 260 256 252 251 254 257 258 257 256 254 255 257 259 260 258 258 259 259 262 265 268 269 271 274 275 275 275 276 277 278 278 279 279 280 279 280 282 284 284 283 283
249 248 249 249 249 254 260 262 261 259 257 256 258 259 258 256 254 252 254 256 257 259 259 260 261 261 261 263 265 267 269 273 274 273 274 275 274 274 277 277 279 280 278 277 279 280 282 280 280
249 250 250 251 254 254 257 262 263 259 257 258 259 259 260 258 255 254 254 254 256 257 258 260 261 262 263 263 264 266 268 272 274 274 275 274 271 272 275 276 277 278 278 278 279 279 281 280 279
Height
5892 5892 5891 5892 5892 5892 5891 5890 5889 5888 5887 5886 5885 5884 5884 5884 5885 5886 5884 5882 5882 5882 5882 5882 5882 5884 5884 5885 5886 5887 5887 5889 5890 5891 5892 5893 5894 5895 5896 5897 5898 5900 5900 5901 5902 5902 5903 5903 5904
5894 5894 5894 5894 5894 5895 5894 5892 5891 5889 5888 5887 5886 5885 5885 5884 5884 5884 5883 5883 5883 5883 5883 5883 5883 5884 5885 5886 5887 5888 5889 5890 5891 5892 5893 5894 5895 5896 5898 5899 5900 5901 5902 5902 5903 5904 5904 5904 5905
5897 5897 5897 5897 5897 5896 5895 5894 5892 5891 5889 5888 5887 5887 5886 5885 5885 5884 5884 5884 5884 5884 5884 5884 5884 5885 5887 5887 5888 5889 5891 5892 5893 5893 5895 5896 5896 5898 5899 5900 5901 5902 5903 5903 5904 5904 5905 5905 5906
5899 5900 5900 5901 5899 5898 5897 5896 5894 5892 5891 5890 5889 5888 5887 5887 5886 5885 5885 5885 5885 5885 5885 5885 5886 5887 5888 5889 5889 5890 5892 5893 5894 5895 5896 5897 5898 5899 5900 5901 5902 5903 5904 5904 5905 5905 5906 5906 5907
5901 5902 5904 5904 5902 5900 5899 5897 5896 5894 5893 5892 5891 5890 5889 5888 5887 5887 5886 5886 5886 5886 5886 5887 5887 5888 5889 5890 5891 5892 5893 5894 5895 5896 5897 5898 5899 5900 5901 5902 5903 5903 5904 5905 5906 5906 5907 5907 5907
5904 5905 5907 5906 5904 5903 5901 5899 5898 5897 5895 5894 5892 5891 5890 5889 5888 5888 5888 5888 5888 5887 5888 5888 5888 5889 5890 5891 5892 5893 5894 5895 5896 5897 5897 5899 5900 5901 5902 5903 5903 5904 5905 5906 5906 5907 5907 5908 5908
5906 5907 5908 5908 5907 5905 5904 5902 5900 5899 5897 5896 5895 5893 5892 5891 5890 5890 5889 5889 5889 5889 5889 5889 5889 5890 5891 5892 5893 5894 5895 5896 5897 5898 5898 5900 5901 5902 5903 5904 5904 5905 5906 5906 5907 5907 5908 5908 5909
5908 5910 5911 5910 5909 5908 5906 5904 5902 5901 5900 5898 5897 5896 5894 5893 5892 5891 5891 5890 5890 5890 5890 5890 5891 5891 5892 5893 5894 5895 5896 5897 5898 5899 5900 5901 5902 5902 5903 5904 5905 5905 5906 5907 5907 5908 5908 5909 5909
5910 5913 5913 5911 5910 5910 5908 5906 5905 5903 5902 5900 5899 5898 5897 5895 5894 5893 5893 5892 5892 5891 5892 5892 5892 5892 5893 5894 5894 5895 5896 5898 5899 5900 5901 5902 5902 5903 5904 5905 5905 5906 5906 5907 5907 5908 5908 5908 5909
5912 5914 5913 5912 5912 5911 5910 5908 5907 5905 5904 5902 5901 5900 5899 5897 5896 5895 5894 5894 5893 5893 5893 5893 5893 5894 5894 5895 5895 5896 5897 5898 5899 5900 5901 5902 5903 5903 5904 5905 5905 5906 5906 5907 5907 5908 5908 5908 5908
5913 5914 5913 5913 5913 5912 5911 5910 5909 5907 5906 5905 5903 5902 5901 5899 5898 5897 5896 5895 5895 5894 5894 5894 5894 5895 5895 5896 5896 5897 5898 5899 5900 5901 5902 5902 5903 5904 5905 5905 5906 5906 5906 5907 5907 5908 5908 5908 5908
5913 5914 5914 5914 5914 5913 5912 5912 5910 5909 5908 5907 5905 5904 5903 5901 5900 5899 5898 5897 5897 5896 5896 5896 5896 5896 5897 5897 5897 5898 5899 5899 5900 5901 5902 5903 5904 5904 5905 5905 5905 5906 5906 5907 5907 5907 5908 5908 5908
5913 5914 5914 5914 5914 5914 5913 5913 5912 5911 5910 5908 5907 5906 5904 5903 5902 5901 5900 5899 5898 5898 5897 5897 5897 5897 5898 5898 5898 5899 5899 5900 5901 5901 5902 5903 5904 5904 5905 5905 5906 5906 5906 5906 5907 5907 5907 5907 5908
5913 5914 5914 5914 5915 5914 5914 5914 5913 5912 5911 5909 5908 5907 5906 5905 5904 5903 5902 5901 5900 5899 5899 5899 5898 5899 5899 5899 5899 5900 5900 5900 5901 5902 5902 5903 5904 5905 5905 5906 5906 5906 5906 5906 5906 5906 5907 5907 5907
5913 5914 5915 5914 5915 5915 5915 5915 5914 5913 5912 5911 5910 5908 5907 5906 5905 5904 5903 5902 5901 5901 5900 5900 5900 5900 5900 5900 5900 5900 5901 5901 5902 5902 5903 5903 5904 5905 5905 5905 5906 5906 5905 5905 5905 5906 5906 5906 5906
5912 5914 5915 5914 5914 5914 5916 5916 5915 5913 5912 5911 5910 5909 5909 5908 5907 5906 5905 5904 5903 5902 5902 5901 5901 5901 5901 5901 5901 5901 5901 5902 5902 5903 5903 5904 5904 5904 5905 5905 5905 5905 5905 5904 5905 5905 5905 5905 5905
5912 5914 5914 5914 5913 5913 5915 5915 5914 5913 5913 5912 5911 5910 5909 5909 5908 5907 5906 5905 5904 5904 5903 5903 5903 5902 5902 5902 5902 5902 5902 5903 5903 5903 5904 5904 5904 5905 5905 5905 5905 5905 5904 5904 5904 5904 5904 5904 5904
5911 5912 5912 5912 5911 5912 5913 5914 5913 5913 5912 5911 5911 5910 5910 5909 5909 5908 5907 5906 5905 5905 5904 5904 5904 5903 5903 5903 5903 5903 5903 5903 5904 5904 5904 5904 5904 5905 5905 5905 5904 5904 5904 5903 5903 5903 5903 5903 5903
5906 5908 5909 5909 5909 5910 5911 5912 5912 5912 5912 5911 5910 5909 5909 5909 5909 5908 5908 5907 5906 5906 5905 5904 5904 5904 5904 5904 5903 5904 5904 5904 5904 5904 5904 5904 5904 5904 5904 5904 5904 5904 5904 5903 5903 5902 5902 5902 5902
5903 5904 5905 5906 5906 5907 5908 5909 5910 5910 5910 5910 5909 5909 5908 5909 5909 5908 5908 5907 5907 5906 5905 5905 5905 5904 5904 5904 5904 5904 5904 5904 5904 5904 5904 5904 5904 5904 5904 5904 5903 5903 5903 5902 5902 5901 5901 5901 5900
5900 5901 5902 5903 5903 5904 5906 5907 5907 5908 5908 5908 5908 5908 5908 5908 5908 5908 5908 5907 5907 5906 5906 5905 5905 5905 5904 5904 5904 5904 5904 5904 5904 5904 5903 5903 5903 5903 5903 5903 5902 5902 5902 5901 5901 5900 5900 5899 5899
5896 5897 5897 5899 5900 5902 5903 5904 5905 5905 5905 5906 5906 5906 5906 5907 5907 5907 5907 5907 5906 5906 5906 5905 5905 5905 5904 5904 5904 5904 5904 5904 5904 5903 5903 5903 5903 5902 5902 5902 5901 5901 5900 5900 5899 5899 5898 5898 5897
5892 5893 5894 5895 5896 5898 5899 5901 5903 5902 5902 5903 5903 5904 5904 5904 5905 5905 5905 5905 5905 5905 5904 5904 5904 5904 5903 5903 5903 5903 5903 5903 5903 5902 5902 5902 5902 5901 5901 5900 5900 5899 5898 5898 5897 5897 5896 5896 5895
5888 5889 5890 5891 5893 5894 5896 5897 5898 5899 5899 5900 5900 5901 5901 5902 5902 5902 5903 5903 5903 5903 5903 5902 5902 5902 5902 5902 5902 5902 5902 5902 5901 5901 5900 5900 5900 5900 5899 5899 5898 5897 5896 5896 5895 5894 5894 5893 5892
5884 5886 5888 5889 5890 5891 5891 5891 5894 5894 5895 5896 5897 5897 5898 5898 5899 5899 5899 5900 5900 5900 5900 5900 5900 5900 5899 5899 5899 5899 5899 5899 5899 5899 5898 5898 5898 5897 5897 5896 5895 5895 5894 5893 5893 5892 5892 5891 5890
5879 5883 5885 5887 5888 5888 5886 5886 5889 5889 5890 5891 5892 5893 5894 5894 5895 5895 5896 5896 5897 5897 5897 5897 5897 5897 5897 5897 5897 5896 5896 5897 5896 5896 5896 5895 5894 5894 5893 5893 5892 5891 5891 5890 5889 5889 5889 5888 5887
5875 5877 5880 5881 5882 5883 5883 5883 5883 5884 5885 5887 5888 5888 5889 5890 5890 5891 5891 5892 5892 5893 5893 5893 5893 5894 5894 5894 5894 5893 5893 5893 5893 5893 5892 5891 5891 5890 5890 5889 5888 5888 5887 5887 5886 5886 5885 5885 5884
5870 5872 5874 5875 5876 5878 5879 5879 5880 5880 5881 5882 5883 5883 5884 5884 5885 5886 5886 5887 5888 5888 5889 5889 5889 5890 5890 5890 5889 5890 5889 5889 5889 5889 5888 5887 5887 5886 5886 5885 5885 5884 5883 5883 5882 5882 5881 5881 5880
5865 5866 5867 5869 5871 5873 5875 5877 5874 5875 5876 5877 5877 5878 5878 5878 5879 5880 5881 5881 5882 5883 5883 5884 5885 5885 5885 5885 5885 5885 5885 5885 5884 5884 5883 5882 5882 5882 5881 5881 5880 5880 5879 5878 5878 5877 5877 5876 5876
5858 5860 5862 5864 5864 5865 5867 5872 5868 5868 5869 5870 5871 5871 5871 5872 5873 5874 5875 5875 5876 5877 5878 5878 5879 5879 5880 5880 5880 5880 5880 5879 5879 5878 5878 5877 5876 5876 5876 5875 5875 5875 5874 5874 5873 5872 5872 5872 5871